TimeCDT,TemperatureF,Dew PointF,Humidity,Sea Level PressureIn,VisibilityMPH,Wind Direction,Wind SpeedMPH,Gust SpeedMPH,PrecipitationIn,Events,Conditions,WindDirDegrees,DateUTC
12:53 AM,45.0,30.0,56,29.92,10.0,NW,8.1,-,N/A,,Clear,310,2011-10-30 05:53:00
1:53 AM,41.0,28.9,62,29.94,10.0,WNW,6.9,-,N/A,,Clear,290,2011-10-30 06:53:00
2:53 AM,48.2,32.0,54,29.96,10.0,NW,18.4,-,N/A,,Mostly Cloudy,320,2011-10-30 07:53:00
3:53 AM,48.9,32.0,52,30.00,10.0,NW,23.0,31.1,N/A,,Partly Cloudy,320,2011-10-30 08:53:00
4:53 AM,46.0,32.0,58,30.02,10.0,NW,17.3,-,N/A,,Clear,320,2011-10-30 09:53:00
5:53 AM,42.1,30.9,65,30.04,10.0,NW,12.7,-,N/A,,Clear,310,2011-10-30 10:53:00
6:53 AM,41.0,30.2,65,30.06,10.0,NW,13.8,-,N/A,,Clear,310,2011-10-30 11:53:00
7:53 AM,39.0,28.9,67,30.09,10.0,WNW,10.4,-,N/A,,Clear,300,2011-10-30 12:53:00
8:53 AM,39.9,28.9,65,30.11,10.0,West,9.2,-,N/A,,Clear,280,2011-10-30 13:53:00
9:53 AM,46.9,28.9,50,30.12,10.0,NW,16.1,-,N/A,,Clear,310,2011-10-30 14:53:00
10:53 AM,52.0,24.1,34,30.11,10.0,NW,18.4,25.3,N/A,,Clear,320,2011-10-30 15:53:00
11:53 AM,55.0,21.0,27,30.11,10.0,NW,21.9,29.9,N/A,,Clear,310,2011-10-30 16:53:00
12:53 PM,57.0,19.9,24,30.11,10.0,NW,19.6,31.1,N/A,,Clear,320,2011-10-30 17:53:00
1:53 PM,59.0,16.0,19,30.09,10.0,NW,20.7,31.1,N/A,,Clear,320,2011-10-30 18:53:00
2:53 PM,60.1,15.1,17,30.06,10.0,WNW,19.6,28.8,N/A,,Clear,290,2011-10-30 19:53:00
3:53 PM,60.1,12.9,16,30.05,10.0,WNW,20.7,29.9,N/A,,Clear,300,2011-10-30 20:53:00
4:53 PM,60.1,10.9,14,30.06,10.0,WNW,21.9,-,N/A,,Clear,290,2011-10-30 21:53:00
5:53 PM,57.0,14.0,18,30.07,10.0,WNW,15.0,-,N/A,,Clear,300,2011-10-30 22:53:00
6:53 PM,48.0,17.1,29,30.09,10.0,NW,6.9,-,N/A,,Clear,310,2011-10-30 23:53:00
7:53 PM,45.0,18.0,34,30.10,10.0,West,5.8,-,N/A,,Clear,270,2011-10-31 00:53:00
8:53 PM,42.8,19.4,39,30.08,10.0,West,6.9,-,N/A,,Clear,280,2011-10-31 01:53:00
9:53 PM,37.0,21.0,52,30.12,10.0,West,4.6,-,N/A,,Clear,270,2011-10-31 02:53:00
10:53 PM,36.0,21.0,55,30.13,10.0,West,5.8,-,N/A,,Clear,260,2011-10-31 03:53:00
11:53 PM,32.0,19.9,61,30.13,10.0,West,5.8,-,N/A,,Clear,260,2011-10-31 04:53:00